Location: Bad Dürkheim
(49.4618°N, 8.1724°E)
Time: 21:09:07
(UTC+00:00)

SL-4 R/B - Pass Details

Date: 14 June 2025
Orbit: 393 x 546 km, 51.6° (Epoch: 16 July)

Event Time Altitude Azimuth Distance (km) Brightness Sun altitude
Exits shadow 22:21:29 - 227° (SW) 1,991 4.6 -15.7°
Reaches altitude 10° 22:21:58 10° 226° (SW) 1,805 4.4 -15.8°
Maximum altitude 22:25:57 50° 151° (SSE) 686 2.1 -15.9°
Drops below altitude 10° 22:29:51 10° 75° (ENE) 1,760 4.6 -16.1°
Sets 22:32:03 0° 70° (ENE) 2,627 5.6 -16.2°
